Time,TemperatureF,DewpointF,PressureIn,WindDirection,WindDirectionDegrees,WindSpeedMPH,WindSpeedGustMPH,Humidity,HourlyPrecipIn,Conditions,Clouds,dailyrainin,SoftwareType,DateUTC
2013-04-17 00:00:00,49.9,31.5,30.12,North,0,5.0,9.0,49,0.00,,---,0.00,VWS V14.01,2013-04-17 07:00:00,
2013-04-17 00:15:00,49.8,30.9,30.12,NNW,338,7.0,12.0,48,0.00,,---,0.00,VWS V14.01,2013-04-17 07:15:00,
2013-04-17 00:30:00,50.8,31.3,30.12,NNW,338,9.0,16.0,47,0.00,,---,0.00,VWS V14.01,2013-04-17 07:30:00,
2013-04-17 00:45:00,51.7,31.6,30.13,NNW,338,11.0,21.0,46,0.00,,---,0.00,VWS V14.01,2013-04-17 07:45:00,
2013-04-17 01:00:00,52.1,31.4,30.14,NNW,338,11.0,20.0,45,0.00,,---,0.00,VWS V14.01,2013-04-17 08:00:00,
2013-04-17 01:15:00,52.2,31.5,30.14,NNW,338,11.0,20.0,45,0.00,,---,0.00,VWS V14.01,2013-04-17 08:15:00,
2013-04-17 01:30:00,52.2,31.5,30.14,NNW,338,11.0,20.0,45,0.00,,---,0.00,VWS V14.01,2013-04-17 08:30:00,
2013-04-17 01:45:00,52.2,32.1,30.14,NNW,338,13.0,21.0,46,0.00,,---,0.00,VWS V14.01,2013-04-17 08:45:00,
2013-04-17 02:00:00,52.1,32.5,30.14,NNW,338,13.0,20.0,47,0.00,,---,0.00,VWS V14.01,2013-04-17 09:00:00,
2013-04-17 02:15:00,51.6,32.0,30.14,NNW,338,12.0,20.0,47,0.00,,---,0.00,VWS V14.01,2013-04-17 09:15:00,
2013-04-17 02:30:00,51.3,32.3,30.15,NNW,338,12.0,21.0,48,0.00,,---,0.00,VWS V14.01,2013-04-17 09:30:00,
2013-04-17 02:45:00,50.8,32.3,30.15,NNW,338,13.0,22.0,49,0.00,,---,0.00,VWS V14.01,2013-04-17 09:45:00,
2013-04-17 03:00:00,50.5,32.6,30.15,NNW,338,13.0,24.0,50,0.00,,---,0.00,VWS V14.01,2013-04-17 10:00:00,
2013-04-17 03:15:00,50.0,32.6,30.14,NNW,338,14.0,24.0,51,0.00,,---,0.00,VWS V14.01,2013-04-17 10:15:00,
2013-04-17 03:30:00,49.7,32.8,30.14,NNW,338,14.0,24.0,52,0.00,,---,0.00,VWS V14.01,2013-04-17 10:30:00,
2013-04-17 03:45:00,49.5,32.6,30.14,NNW,338,15.0,24.0,52,0.00,,---,0.00,VWS V14.01,2013-04-17 10:45:00,
2013-04-17 04:00:00,49.2,33.3,30.14,NNW,338,14.0,21.0,54,0.00,,---,0.00,VWS V14.01,2013-04-17 11:00:00,
2013-04-17 04:15:00,48.8,33.4,30.15,NNW,338,13.0,24.0,55,0.00,,---,0.00,VWS V14.01,2013-04-17 11:15:00,
2013-04-17 04:30:00,48.5,33.1,30.15,NNW,338,12.0,20.0,55,0.00,,---,0.00,VWS V14.01,2013-04-17 11:30:00,
2013-04-17 04:45:00,48.4,33.0,30.15,NNW,338,13.0,23.0,55,0.00,,---,0.00,VWS V14.01,2013-04-17 11:45:00,
2013-04-17 05:00:00,48.7,33.3,30.15,NNW,338,13.0,23.0,55,0.00,,---,0.00,VWS V14.01,2013-04-17 12:00:00,
2013-04-17 05:15:00,48.8,33.4,30.16,NNW,338,14.0,24.0,55,0.00,,---,0.00,VWS V14.01,2013-04-17 12:15:00,
2013-04-17 05:30:00,48.9,33.5,30.16,NNW,338,14.0,23.0,55,0.00,,---,0.00,VWS V14.01,2013-04-17 12:30:00,
2013-04-17 05:45:00,48.9,33.5,30.17,NNW,338,14.0,23.0,55,0.00,,---,0.00,VWS V14.01,2013-04-17 12:45:00,
2013-04-17 06:00:00,48.6,33.2,30.17,NNW,338,12.0,19.0,55,0.00,,---,0.00,VWS V14.01,2013-04-17 13:00:00,
2013-04-17 06:15:00,48.8,33.4,30.16,NNW,338,14.0,24.0,55,0.00,,---,0.00,VWS V14.01,2013-04-17 13:15:00,
2013-04-17 06:21:00,48.2,33.3,30.18,NNW,333,9.0,12.0,56,0.00,,---,0.00,VWS V14.01,2013-04-17 13:21:00,
2013-04-17 06:26:00,48.1,33.2,30.18,NNW,331,14.0,19.0,56,0.00,,---,0.00,VWS V14.01,2013-04-17 13:26:00,
2013-04-17 06:30:00,48.1,33.2,30.18,NNW,338,11.0,19.0,56,0.00,,---,0.00,VWS V14.01,2013-04-17 13:30:00,
2013-04-17 06:31:00,48.1,33.2,30.18,NNW,330,12.0,15.0,56,0.00,,---,0.00,VWS V14.01,2013-04-17 13:31:00,
2013-04-17 06:35:00,48.1,33.2,30.18,NW,323,10.0,22.0,56,0.00,,---,0.00,VWS V14.01,2013-04-17 13:35:00,
2013-04-17 06:40:00,48.1,33.2,30.18,NNW,338,10.0,23.0,56,0.00,,---,0.00,VWS V14.01,2013-04-17 13:40:00,
2013-04-17 06:45:00,48.2,34.1,30.18,NNW,344,10.0,17.0,58,0.00,,---,0.00,VWS V14.01,2013-04-17 13:45:00,
2013-04-17 06:50:00,48.3,33.3,30.19,NNW,335,8.0,21.0,56,0.00,,---,0.00,VWS V14.01,2013-04-17 13:50:00,
2013-04-17 06:55:00,48.4,33.4,30.19,NNW,335,15.0,22.0,56,0.00,,---,0.00,VWS V14.01,2013-04-17 13:55:00,
2013-04-17 07:00:00,48.5,33.5,30.19,North,350,11.0,11.0,56,0.00,,---,0.00,VWS V14.01,2013-04-17 14:00:00,
2013-04-17 07:05:00,48.6,33.2,30.20,NNW,347,12.0,23.0,55,0.00,,---,0.00,VWS V14.01,2013-04-17 14:05:00,
2013-04-17 07:10:00,48.7,33.3,30.20,NW,310,18.0,23.0,55,0.00,,---,0.00,VWS V14.01,2013-04-17 14:10:00,
2013-04-17 07:15:00,48.7,33.3,30.20,NNW,329,11.0,14.0,55,0.00,,---,0.00,VWS V14.01,2013-04-17 14:15:00,
2013-04-17 07:20:00,48.9,33.5,30.21,NNW,338,14.0,20.0,55,0.00,,---,0.00,VWS V14.01,2013-04-17 14:20:00,
2013-04-17 07:25:00,49.0,33.5,30.21,NNW,327,10.0,20.0,55,0.00,,---,0.00,VWS V14.01,2013-04-17 14:25:00,
2013-04-17 07:30:00,49.2,33.7,30.21,NW,318,10.0,16.0,55,0.00,,---,0.00,VWS V14.01,2013-04-17 14:30:00,
2013-04-17 07:35:00,49.3,33.8,30.21,NNW,344,11.0,24.0,55,0.00,,---,0.00,VWS V14.01,2013-04-17 14:35:00,
2013-04-17 07:40:00,49.5,34.0,30.21,NNW,333,13.0,24.0,55,0.00,,---,0.00,VWS V14.01,2013-04-17 14:40:00,
2013-04-17 07:45:00,49.6,34.1,30.21,NNW,338,13.0,13.0,55,0.00,,---,0.00,VWS V14.01,2013-04-17 14:45:00,
2013-04-17 07:50:00,49.7,34.2,30.21,NNW,329,14.0,21.0,55,0.00,,---,0.00,VWS V14.01,2013-04-17 14:50:00,
2013-04-17 07:55:00,49.9,34.4,30.21,NW,323,17.0,21.0,55,0.00,,---,0.00,VWS V14.01,2013-04-17 14:55:00,
2013-04-17 08:00:00,50.1,34.6,30.22,NNW,341,13.0,17.0,55,0.00,,---,0.00,VWS V14.01,2013-04-17 15:00:00,
2013-04-17 08:05:00,50.3,34.8,30.22,NNW,345,9.0,19.0,55,0.00,,---,0.00,VWS V14.01,2013-04-17 15:05:00,
2013-04-17 08:10:00,50.7,35.1,30.22,NNW,342,6.0,19.0,55,0.00,,---,0.00,VWS V14.01,2013-04-17 15:10:00,
2013-04-17 08:15:00,51.0,35.0,30.22,NW,310,14.0,17.0,54,0.00,,---,0.00,VWS V14.01,2013-04-17 15:15:00,
2013-04-17 08:20:00,51.4,34.9,30.22,North,350,13.0,21.0,53,0.00,,---,0.00,VWS V14.01,2013-04-17 15:20:00,
2013-04-17 08:25:00,51.7,35.1,30.22,NNW,340,12.0,24.0,53,0.00,,---,0.00,VWS V14.01,2013-04-17 15:25:00,
2013-04-17 08:30:00,51.9,34.8,30.22,NNW,341,13.0,14.0,52,0.00,,---,0.00,VWS V14.01,2013-04-17 15:30:00,
2013-04-17 08:35:00,52.2,35.1,30.22,North,350,18.0,26.0,52,0.00,,---,0.00,VWS V14.01,2013-04-17 15:35:00,
2013-04-17 08:40:00,52.4,34.8,30.22,NNW,336,21.0,26.0,51,0.00,,---,0.00,VWS V14.01,2013-04-17 15:40:00,
2013-04-17 08:45:00,52.7,35.1,30.22,North,350,24.0,24.0,51,0.00,,---,0.00,VWS V14.01,2013-04-17 15:45:00,
2013-04-17 08:50:00,53.1,35.0,30.22,NNW,333,17.0,29.0,50,0.00,,---,0.00,VWS V14.01,2013-04-17 15:50:00,
2013-04-17 08:55:00,53.4,35.2,30.22,NNW,338,17.0,29.0,50,0.00,,---,0.00,VWS V14.01,2013-04-17 15:55:00,
2013-04-17 09:00:00,53.8,35.6,30.22,NNW,339,19.0,19.0,50,0.00,,---,0.00,VWS V14.01,2013-04-17 16:00:00,
2013-04-17 09:05:00,54.2,35.5,30.22,North,355,9.0,28.0,49,0.00,,---,0.00,VWS V14.01,2013-04-17 16:05:00,
2013-04-17 09:10:00,54.7,35.4,30.22,NNW,337,18.0,28.0,48,0.00,,---,0.00,VWS V14.01,2013-04-17 16:10:00,
2013-04-17 09:15:00,55.2,35.3,30.22,North,355,15.0,22.0,47,0.00,,---,0.00,VWS V14.01,2013-04-17 16:15:00,
2013-04-17 09:20:00,55.7,35.3,30.22,NNW,332,15.0,27.0,46,0.00,,---,0.00,VWS V14.01,2013-04-17 16:20:00,
2013-04-17 09:25:00,56.3,35.2,30.23,NNW,327,20.0,28.0,45,0.00,,---,0.00,VWS V14.01,2013-04-17 16:25:00,
2013-04-17 09:30:00,56.8,34.6,30.23,NW,315,15.0,20.0,43,0.00,,---,0.00,VWS V14.01,2013-04-17 16:30:00,
2013-04-17 09:35:00,57.3,34.4,30.23,North,355,12.0,27.0,42,0.00,,---,0.00,VWS V14.01,2013-04-17 16:35:00,
2013-04-17 09:40:00,57.9,34.4,30.23,NW,316,20.0,27.0,41,0.00,,---,0.00,VWS V14.01,2013-04-17 16:40:00,
2013-04-17 09:45:00,58.4,34.2,30.22,NW,321,14.0,27.0,40,0.00,,---,0.00,VWS V14.01,2013-04-17 16:45:00,
2013-04-17 09:50:00,58.9,34.0,30.22,NNW,334,13.0,29.0,39,0.00,,---,0.00,VWS V14.01,2013-04-17 16:50:00,
2013-04-17 09:55:00,59.3,33.7,30.22,NW,325,15.0,29.0,38,0.00,,---,0.00,VWS V14.01,2013-04-17 16:55:00,
2013-04-17 10:00:00,59.8,32.8,30.22,NNW,331,19.0,29.0,36,0.00,,---,0.00,VWS V14.01,2013-04-17 17:00:00,
2013-04-17 10:05:00,60.2,32.5,30.22,NNW,338,10.0,33.0,35,0.00,,---,0.00,VWS V14.01,2013-04-17 17:05:00,
2013-04-17 10:10:00,60.5,32.0,30.22,NW,313,13.0,33.0,34,0.00,,---,0.00,VWS V14.01,2013-04-17 17:10:00,
2013-04-17 10:15:00,60.6,31.4,30.22,NNW,333,11.0,33.0,33,0.00,,---,0.00,VWS V14.01,2013-04-17 17:15:00,
2013-04-17 10:20:00,60.9,31.6,30.22,North,351,23.0,32.0,33,0.00,,---,0.00,VWS V14.01,2013-04-17 17:20:00,
2013-04-17 10:25:00,61.2,30.4,30.22,NW,323,17.0,32.0,31,0.00,,---,0.00,VWS V14.01,2013-04-17 17:25:00,
2013-04-17 10:30:00,61.5,30.6,30.22,NW,316,17.0,32.0,31,0.00,,---,0.00,VWS V14.01,2013-04-17 17:30:00,
2013-04-17 10:35:00,62.0,31.8,30.22,NNW,339,12.0,32.0,32,0.00,,---,0.00,VWS V14.01,2013-04-17 17:35:00,
2013-04-17 10:40:00,62.6,30.8,30.22,NNW,336,13.0,32.0,30,0.00,,---,0.00,VWS V14.01,2013-04-17 17:40:00,
2013-04-17 10:45:00,63.0,31.9,30.22,NNW,338,30.0,32.0,31,0.00,,---,0.00,VWS V14.01,2013-04-17 17:45:00,
2013-04-17 10:50:00,63.2,31.3,30.21,NNW,344,17.0,29.0,30,0.00,,---,0.00,VWS V14.01,2013-04-17 17:50:00,
2013-04-17 10:55:00,63.3,31.4,30.21,NNW,333,10.0,29.0,30,0.00,,---,0.00,VWS V14.01,2013-04-17 17:55:00,
2013-04-17 11:00:00,63.2,29.6,30.21,NW,325,27.0,33.0,28,0.00,,---,0.00,VWS V14.01,2013-04-17 18:00:00,
2013-04-17 11:05:00,63.0,30.3,30.22,NNW,348,10.0,31.0,29,0.00,,---,0.00,VWS V14.01,2013-04-17 18:05:00,
2013-04-17 11:10:00,63.1,31.2,30.22,NNW,332,24.0,31.0,30,0.00,,---,0.00,VWS V14.01,2013-04-17 18:10:00,
2013-04-17 11:15:00,63.3,28.8,30.22,NNW,342,24.0,31.0,27,0.00,,---,0.00,VWS V14.01,2013-04-17 18:15:00,
2013-04-17 11:20:00,63.4,28.9,30.21,NNW,348,20.0,34.0,27,0.00,,---,0.00,VWS V14.01,2013-04-17 18:20:00,
2013-04-17 11:25:00,63.6,29.9,30.21,NW,319,14.0,34.0,28,0.00,,---,0.00,VWS V14.01,2013-04-17 18:25:00,
2013-04-17 11:30:00,64.0,29.4,30.21,NNW,329,20.0,34.0,27,0.00,,---,0.00,VWS V14.01,2013-04-17 18:30:00,
2013-04-17 11:35:00,64.4,29.7,30.21,North,360,23.0,29.0,27,0.00,,---,0.00,VWS V14.01,2013-04-17 18:35:00,
2013-04-17 11:40:00,64.8,29.1,30.22,North,5,23.0,29.0,26,0.00,,---,0.00,VWS V14.01,2013-04-17 18:40:00,
2013-04-17 11:45:00,65.1,29.4,30.22,North,349,25.0,29.0,26,0.00,,---,0.00,VWS V14.01,2013-04-17 18:45:00,
2013-04-17 11:50:00,64.8,28.2,30.21,NNE,14,15.0,29.0,25,0.00,,---,0.00,VWS V14.01,2013-04-17 18:50:00,
2013-04-17 11:55:00,64.4,28.8,30.21,NW,325,18.0,35.0,26,0.00,,---,0.00,VWS V14.01,2013-04-17 18:55:00,
2013-04-17 12:00:00,64.4,28.8,30.21,NW,318,26.0,35.0,26,0.00,,---,0.00,VWS V14.01,2013-04-17 19:00:00,
2013-04-17 12:05:00,64.7,30.0,30.21,NNW,331,19.0,28.0,27,0.00,,---,0.00,VWS V14.01,2013-04-17 19:05:00,
2013-04-17 12:10:00,65.3,30.5,30.21,NW,323,21.0,28.0,27,0.00,,---,0.00,VWS V14.01,2013-04-17 19:10:00,
2013-04-17 12:15:00,65.6,27.9,30.21,NNW,340,14.0,31.0,24,0.00,,---,0.00,VWS V14.01,2013-04-17 19:15:00,
2013-04-17 12:20:00,65.6,29.8,30.21,NNW,341,12.0,30.0,26,0.00,,---,0.00,VWS V14.01,2013-04-17 19:20:00,
2013-04-17 12:25:00,65.8,29.0,30.21,WNW,302,14.0,30.0,25,0.00,,---,0.00,VWS V14.01,2013-04-17 19:25:00,
2013-04-17 12:30:00,66.0,28.2,30.21,NNW,334,18.0,31.0,24,0.00,,---,0.00,VWS V14.01,2013-04-17 19:30:00,
2013-04-17 12:34:00,66.3,29.5,30.21,NNW,339,20.0,29.0,25,0.00,,---,0.00,VWS V14.01,2013-04-17 19:34:00,
2013-04-17 12:39:00,66.5,29.6,30.21,North,360,14.0,29.0,25,0.00,,---,0.00,VWS V14.01,2013-04-17 19:39:00,
2013-04-17 12:44:00,66.8,28.9,30.20,NW,321,19.0,29.0,24,0.00,,---,0.00,VWS V14.01,2013-04-17 19:44:00,
2013-04-17 12:45:00,66.8,27.8,30.20,North,355,17.0,29.0,23,0.00,,---,0.00,VWS V14.01,2013-04-17 19:45:00,
2013-04-17 12:49:00,66.8,27.8,30.20,North,360,13.0,27.0,23,0.00,,---,0.00,VWS V14.01,2013-04-17 19:49:00,
2013-04-17 12:54:00,66.9,29.0,30.20,NNW,340,12.0,30.0,24,0.00,,---,0.00,VWS V14.01,2013-04-17 19:54:00,
2013-04-17 12:59:00,67.0,28.0,30.20,NNW,333,22.0,30.0,23,0.00,,---,0.00,VWS V14.01,2013-04-17 19:59:00,
2013-04-17 13:00:00,67.0,26.9,30.20,NNW,348,19.0,30.0,22,0.00,,---,0.00,VWS V14.01,2013-04-17 20:00:00,
2013-04-17 13:04:00,67.3,29.3,30.20,North,351,21.0,31.0,24,0.00,,---,0.00,VWS V14.01,2013-04-17 20:04:00,
2013-04-17 13:09:00,67.6,28.5,30.20,NNW,331,21.0,31.0,23,0.00,,---,0.00,VWS V14.01,2013-04-17 20:09:00,
2013-04-17 13:14:00,67.8,29.7,30.20,NNW,338,13.0,31.0,24,0.00,,---,0.00,VWS V14.01,2013-04-17 20:14:00,
2013-04-17 13:15:00,67.8,29.7,30.20,NNW,333,15.0,31.0,24,0.00,,---,0.00,VWS V14.01,2013-04-17 20:15:00,
2013-04-17 13:19:00,67.7,27.5,30.20,NNW,332,11.0,32.0,22,0.00,,---,0.00,VWS V14.01,2013-04-17 20:19:00,
2013-04-17 13:24:00,67.8,29.7,30.20,North,5,10.0,32.0,24,0.00,,---,0.00,VWS V14.01,2013-04-17 20:24:00,
2013-04-17 13:29:00,68.2,30.1,30.19,North,355,20.0,32.0,24,0.00,,---,0.00,VWS V14.01,2013-04-17 20:29:00,
2013-04-17 13:30:00,68.3,30.1,30.19,NNW,333,21.0,32.0,24,0.00,,---,0.00,VWS V14.01,2013-04-17 20:30:00,
2013-04-17 13:34:00,68.5,29.3,30.19,NNW,331,12.0,22.0,23,0.00,,---,0.00,VWS V14.01,2013-04-17 20:34:00,
2013-04-17 13:39:00,68.8,28.4,30.19,NNW,340,20.0,30.0,22,0.00,,---,0.00,VWS V14.01,2013-04-17 20:39:00,
2013-04-17 13:44:00,69.1,30.8,30.19,North,5,11.0,30.0,24,0.00,,---,0.00,VWS V14.01,2013-04-17 20:44:00,
2013-04-17 13:45:00,69.2,30.9,30.19,NNW,337,13.0,30.0,24,0.00,,---,0.00,VWS V14.01,2013-04-17 20:45:00,
2013-04-17 13:49:00,69.7,28.0,30.19,NNW,338,12.0,24.0,21,0.00,,---,0.00,VWS V14.01,2013-04-17 20:49:00,
2013-04-17 13:54:00,70.0,29.4,30.19,North,360,15.0,24.0,22,0.00,,---,0.00,VWS V14.01,2013-04-17 20:54:00,
2013-04-17 13:59:00,70.2,30.7,30.19,North,350,13.0,30.0,23,0.00,,---,0.00,VWS V14.01,2013-04-17 20:59:00,
2013-04-17 14:00:00,70.2,30.7,30.19,NNW,331,11.0,30.0,23,0.00,,---,0.00,VWS V14.01,2013-04-17 21:00:00,
2013-04-17 14:04:00,70.2,27.3,30.18,NNW,345,22.0,30.0,20,0.00,,---,0.00,VWS V14.01,2013-04-17 21:04:00,
2013-04-17 14:09:00,69.9,28.2,30.19,NNW,341,7.0,30.0,21,0.00,,---,0.00,VWS V14.01,2013-04-17 21:09:00,
2013-04-17 14:14:00,69.9,28.2,30.18,NNW,341,14.0,30.0,21,0.00,,---,0.00,VWS V14.01,2013-04-17 21:14:00,
2013-04-17 14:15:00,69.9,29.4,30.18,North,355,13.0,30.0,22,0.00,,---,0.00,VWS V14.01,2013-04-17 21:15:00,
2013-04-17 14:19:00,70.0,29.4,30.18,North,10,8.0,22.0,22,0.00,,---,0.00,VWS V14.01,2013-04-17 21:19:00,
2013-04-17 14:24:00,70.2,28.5,30.18,NNW,340,13.0,26.0,21,0.00,,---,0.00,VWS V14.01,2013-04-17 21:24:00,
2013-04-17 14:29:00,70.1,28.4,30.18,NW,323,14.0,26.0,21,0.00,,---,0.00,VWS V14.01,2013-04-17 21:29:00,
2013-04-17 14:30:00,70.1,28.4,30.18,NNW,335,14.0,26.0,21,0.00,,---,0.00,VWS V14.01,2013-04-17 21:30:00,
2013-04-17 14:34:00,70.1,29.5,30.18,NNW,331,12.0,28.0,22,0.00,,---,0.00,VWS V14.01,2013-04-17 21:34:00,
2013-04-17 14:39:00,70.1,28.4,30.18,North,355,12.0,28.0,21,0.00,,---,0.00,VWS V14.01,2013-04-17 21:39:00,
2013-04-17 14:44:00,70.1,28.4,30.17,NNW,336,10.0,28.0,21,0.00,,---,0.00,VWS V14.01,2013-04-17 21:44:00,
2013-04-17 14:45:00,70.1,28.4,30.17,NNE,24,12.0,28.0,21,0.00,,---,0.00,VWS V14.01,2013-04-17 21:45:00,
2013-04-17 14:49:00,70.1,27.2,30.17,NNW,327,19.0,24.0,20,0.00,,---,0.00,VWS V14.01,2013-04-17 21:49:00,
2013-04-17 14:54:00,70.0,28.3,30.17,NW,304,22.0,28.0,21,0.00,,---,0.00,VWS V14.01,2013-04-17 21:54:00,
2013-04-17 14:59:00,70.1,28.4,30.17,NW,316,20.0,29.0,21,0.00,,---,0.00,VWS V14.01,2013-04-17 21:59:00,
2013-04-17 15:00:00,70.1,27.2,30.17,NW,325,18.0,29.0,20,0.00,,---,0.00,VWS V14.01,2013-04-17 22:00:00,
2013-04-17 15:04:00,70.1,27.2,30.17,NW,314,17.0,26.0,20,0.00,,---,0.00,VWS V14.01,2013-04-17 22:04:00,
2013-04-17 15:09:00,70.0,27.1,30.17,NNW,331,15.0,28.0,20,0.00,,---,0.00,VWS V14.01,2013-04-17 22:09:00,
2013-04-17 15:14:00,70.1,28.4,30.16,NW,323,19.0,28.0,21,0.00,,---,0.00,VWS V14.01,2013-04-17 22:14:00,
2013-04-17 15:15:00,70.1,26.0,30.16,NNW,331,11.0,28.0,19,0.00,,---,0.00,VWS V14.01,2013-04-17 22:15:00,
2013-04-17 15:19:00,70.1,28.4,30.17,North,355,16.0,24.0,21,0.00,,---,0.00,VWS V14.01,2013-04-17 22:19:00,
2013-04-17 15:24:00,70.3,27.4,30.16,NNW,329,23.0,28.0,20,0.00,,---,0.00,VWS V14.01,2013-04-17 22:24:00,
2013-04-17 15:29:00,70.3,27.4,30.15,NW,321,12.0,28.0,20,0.00,,---,0.00,VWS V14.01,2013-04-17 22:29:00,
2013-04-17 15:30:00,70.3,27.4,30.16,NNW,342,12.0,28.0,20,0.00,,---,0.00,VWS V14.01,2013-04-17 22:30:00,
2013-04-17 15:34:00,70.4,27.5,30.15,NNW,346,16.0,29.0,20,0.00,,---,0.00,VWS V14.01,2013-04-17 22:34:00,
2013-04-17 15:39:00,70.6,28.8,30.16,NNW,332,12.0,29.0,21,0.00,,---,0.00,VWS V14.01,2013-04-17 22:39:00,
2013-04-17 15:44:00,70.7,26.5,30.15,North,355,11.0,29.0,19,0.00,,---,0.00,VWS V14.01,2013-04-17 22:44:00,
2013-04-17 15:45:00,70.7,26.5,30.15,North,355,18.0,29.0,19,0.00,,---,0.00,VWS V14.01,2013-04-17 22:45:00,
2013-04-17 15:49:00,70.9,29.0,30.15,NNW,333,9.0,20.0,21,0.00,,---,0.00,VWS V14.01,2013-04-17 22:49:00,
2013-04-17 15:54:00,70.9,27.9,30.15,NNW,338,16.0,25.0,20,0.00,,---,0.00,VWS V14.01,2013-04-17 22:54:00,
2013-04-17 15:59:00,70.9,26.6,30.15,NW,309,16.0,25.0,19,0.00,,---,0.00,VWS V14.01,2013-04-17 22:59:00,
2013-04-17 16:00:00,70.9,26.6,30.15,NW,319,18.0,25.0,19,0.00,,---,0.00,VWS V14.01,2013-04-17 23:00:00,
2013-04-17 16:04:00,70.8,26.5,30.15,NW,325,17.0,21.0,19,0.00,,---,0.00,VWS V14.01,2013-04-17 23:04:00,
2013-04-17 16:09:00,70.7,26.5,30.15,NW,311,23.0,24.0,19,0.00,,---,0.00,VWS V14.01,2013-04-17 23:09:00,
2013-04-17 16:14:00,70.7,27.7,30.15,NNW,334,21.0,24.0,20,0.00,,---,0.00,VWS V14.01,2013-04-17 23:14:00,
2013-04-17 16:15:00,70.8,27.8,30.15,NW,313,15.0,24.0,20,0.00,,---,0.00,VWS V14.01,2013-04-17 23:15:00,
2013-04-17 16:19:00,70.7,27.7,30.15,NNW,337,7.0,24.0,20,0.00,,---,0.00,VWS V14.01,2013-04-17 23:19:00,
2013-04-17 16:24:00,70.7,26.5,30.15,NNW,333,12.0,25.0,19,0.00,,---,0.00,VWS V14.01,2013-04-17 23:24:00,
2013-04-17 16:29:00,70.6,25.1,30.14,WNW,303,19.0,25.0,18,0.00,,---,0.00,VWS V14.01,2013-04-17 23:29:00,
2013-04-17 16:30:00,70.6,25.1,30.14,NW,313,19.0,25.0,18,0.00,,---,0.00,VWS V14.01,2013-04-17 23:30:00,
2013-04-17 16:34:00,70.5,27.5,30.14,NW,322,19.0,28.0,20,0.00,,---,0.00,VWS V14.01,2013-04-17 23:34:00,
2013-04-17 16:39:00,70.5,27.5,30.14,NNW,335,12.0,28.0,20,0.00,,---,0.00,VWS V14.01,2013-04-17 23:39:00,
2013-04-17 16:44:00,70.7,26.5,30.14,NNW,335,10.0,28.0,19,0.00,,---,0.00,VWS V14.01,2013-04-17 23:44:00,
2013-04-17 16:45:00,70.7,26.5,30.14,NNW,342,18.0,28.0,19,0.00,,---,0.00,VWS V14.01,2013-04-17 23:45:00,
2013-04-17 16:49:00,70.7,27.7,30.14,NNW,336,10.0,20.0,20,0.00,,---,0.00,VWS V14.01,2013-04-17 23:49:00,
2013-04-17 16:54:00,70.8,29.0,30.13,NNW,343,15.0,24.0,21,0.00,,---,0.00,VWS V14.01,2013-04-17 23:54:00,
2013-04-17 16:59:00,70.9,27.9,30.13,NW,316,10.0,24.0,20,0.00,,---,0.00,VWS V14.01,2013-04-17 23:59:00,
2013-04-17 17:00:00,70.9,26.6,30.13,North,355,14.0,24.0,19,0.00,,---,0.00,VWS V14.01,2013-04-18 00:00:00,
2013-04-17 17:04:00,70.8,27.8,30.13,NW,320,13.0,23.0,20,0.00,,---,0.00,VWS V14.01,2013-04-18 00:04:00,
2013-04-17 17:09:00,70.9,27.9,30.13,NNW,343,11.0,23.0,20,0.00,,---,0.00,VWS V14.01,2013-04-18 00:09:00,
2013-04-17 17:14:00,70.9,27.9,30.13,NNW,342,12.0,24.0,20,0.00,,---,0.00,VWS V14.01,2013-04-18 00:14:00,
2013-04-17 17:15:00,70.9,27.9,30.13,NW,323,17.0,24.0,20,0.00,,---,0.00,VWS V14.01,2013-04-18 00:15:00,
2013-04-17 17:19:00,70.9,26.6,30.13,NNW,341,16.0,22.0,19,0.00,,---,0.00,VWS V14.01,2013-04-18 00:19:00,
2013-04-17 17:24:00,70.8,26.5,30.13,NNW,338,9.0,24.0,19,0.00,,---,0.00,VWS V14.01,2013-04-18 00:24:00,
2013-04-17 17:29:00,70.6,26.4,30.13,NNW,348,8.0,24.0,19,0.00,,---,0.00,VWS V14.01,2013-04-18 00:29:00,
2013-04-17 17:30:00,70.5,26.3,30.13,NNW,345,16.0,24.0,19,0.00,,---,0.00,VWS V14.01,2013-04-18 00:30:00,
2013-04-17 17:34:00,70.3,27.4,30.13,NNW,327,11.0,18.0,20,0.00,,---,0.00,VWS V14.01,2013-04-18 00:34:00,
2013-04-17 17:39:00,70.1,27.2,30.13,North,350,15.0,19.0,20,0.00,,---,0.00,VWS V14.01,2013-04-18 00:39:00,
2013-04-17 17:44:00,70.0,25.9,30.13,North,360,13.0,20.0,19,0.00,,---,0.00,VWS V14.01,2013-04-18 00:44:00,
2013-04-17 17:45:00,69.9,25.8,30.13,NNW,344,11.0,20.0,19,0.00,,---,0.00,VWS V14.01,2013-04-18 00:45:00,
2013-04-17 17:49:00,69.8,27.0,30.13,North,349,15.0,23.0,20,0.00,,---,0.00,VWS V14.01,2013-04-18 00:49:00,
2013-04-17 17:54:00,69.7,28.0,30.13,NNW,344,11.0,23.0,21,0.00,,---,0.00,VWS V14.01,2013-04-18 00:54:00,
2013-04-17 17:59:00,69.5,25.5,30.13,NNW,332,11.0,23.0,19,0.00,,---,0.00,VWS V14.01,2013-04-18 00:59:00,
2013-04-17 18:00:00,69.4,25.4,30.13,NNW,343,11.0,23.0,19,0.00,,---,0.00,VWS V14.01,2013-04-18 01:00:00,
2013-04-17 18:04:00,69.4,25.4,30.13,NNW,336,14.0,19.0,19,0.00,,---,0.00,VWS V14.01,2013-04-18 01:04:00,
2013-04-17 18:09:00,69.2,26.5,30.13,NNW,333,20.0,21.0,20,0.00,,---,0.00,VWS V14.01,2013-04-18 01:09:00,
2013-04-17 18:13:00,69.0,26.3,30.13,NNW,338,18.0,22.0,20,0.00,,---,0.00,VWS V14.01,2013-04-18 01:13:00,
2013-04-17 18:15:00,68.9,26.2,30.13,NNW,335,18.0,22.0,20,0.00,,---,0.00,VWS V14.01,2013-04-18 01:15:00,
2013-04-17 18:18:00,68.8,26.1,30.13,NNW,331,8.0,19.0,20,0.00,,---,0.00,VWS V14.01,2013-04-18 01:18:00,
2013-04-17 18:23:00,68.7,26.0,30.13,NW,321,8.0,24.0,20,0.00,,---,0.00,VWS V14.01,2013-04-18 01:23:00,
2013-04-17 18:28:00,68.6,26.0,30.13,NNW,336,9.0,24.0,20,0.00,,---,0.00,VWS V14.01,2013-04-18 01:28:00,
2013-04-17 18:30:00,68.5,25.9,30.13,NNW,344,7.0,24.0,20,0.00,,---,0.00,VWS V14.01,2013-04-18 01:30:00,
2013-04-17 18:33:00,68.5,27.1,30.13,North,350,11.0,17.0,21,0.00,,---,0.00,VWS V14.01,2013-04-18 01:33:00,
2013-04-17 18:38:00,68.3,26.9,30.13,NNW,345,15.0,17.0,21,0.00,,---,0.00,VWS V14.01,2013-04-18 01:38:00,
2013-04-17 18:43:00,68.2,26.8,30.12,NNW,337,13.0,19.0,21,0.00,,---,0.00,VWS V14.01,2013-04-18 01:43:00,
2013-04-17 18:45:00,68.1,26.7,30.13,NNW,335,14.0,20.0,21,0.00,,---,0.00,VWS V14.01,2013-04-18 01:45:00,
2013-04-17 18:48:00,68.0,26.6,30.12,NNW,330,11.0,18.0,21,0.00,,---,0.00,VWS V14.01,2013-04-18 01:48:00,
2013-04-17 18:53:00,67.8,27.6,30.12,NNW,345,12.0,18.0,22,0.00,,---,0.00,VWS V14.01,2013-04-18 01:53:00,
2013-04-17 18:58:00,67.6,27.4,30.12,North,355,9.0,18.0,22,0.00,,---,0.00,VWS V14.01,2013-04-18 01:58:00,
2013-04-17 19:00:00,67.5,27.4,30.12,NW,308,11.0,18.0,22,0.00,,---,0.00,VWS V14.01,2013-04-18 02:00:00,
2013-04-17 19:03:00,67.4,27.3,30.12,North,355,13.0,15.0,22,0.00,,---,0.00,VWS V14.01,2013-04-18 02:03:00,
2013-04-17 19:08:00,67.2,27.1,30.12,NNW,340,7.0,15.0,22,0.00,,---,0.00,VWS V14.01,2013-04-18 02:08:00,
2013-04-17 19:13:00,67.0,26.9,30.12,NNW,338,9.0,17.0,22,0.00,,---,0.00,VWS V14.01,2013-04-18 02:13:00,
2013-04-17 19:15:00,66.9,27.9,30.12,NNW,346,6.0,17.0,23,0.00,,---,0.00,VWS V14.01,2013-04-18 02:15:00,
2013-04-17 19:18:00,66.8,27.8,30.12,NNW,329,7.0,11.0,23,0.00,,---,0.00,VWS V14.01,2013-04-18 02:18:00,
2013-04-17 19:23:00,66.6,27.7,30.13,NW,325,5.0,13.0,23,0.00,,---,0.00,VWS V14.01,2013-04-18 02:23:00,
2013-04-17 19:28:00,66.3,27.4,30.13,NNW,329,2.0,13.0,23,0.00,,---,0.00,VWS V14.01,2013-04-18 02:28:00,
2013-04-17 19:30:00,66.2,28.4,30.13,NW,321,5.0,13.0,24,0.00,,---,0.00,VWS V14.01,2013-04-18 02:30:00,
2013-04-17 19:33:00,65.9,27.1,30.13,NNW,334,8.0,15.0,23,0.00,,---,0.00,VWS V14.01,2013-04-18 02:33:00,
2013-04-17 19:38:00,65.6,27.9,30.13,NW,316,9.0,15.0,24,0.00,,---,0.00,VWS V14.01,2013-04-18 02:38:00,
2013-04-17 19:43:00,65.2,28.5,30.13,NW,317,2.0,15.0,25,0.00,,---,0.00,VWS V14.01,2013-04-18 02:43:00,
2013-04-17 19:45:00,65.1,28.4,30.13,NW,317,5.0,15.0,25,0.00,,---,0.00,VWS V14.01,2013-04-18 02:45:00,
2013-04-17 19:48:00,64.9,28.3,30.13,NW,313,6.0,9.0,25,0.00,,---,0.00,VWS V14.01,2013-04-18 02:48:00,
2013-04-17 19:53:00,64.4,28.8,30.13,NW,322,10.0,12.0,26,0.00,,---,0.00,VWS V14.01,2013-04-18 02:53:00,
2013-04-17 19:58:00,64.0,29.4,30.12,NW,321,0.0,12.0,27,0.00,,---,0.00,VWS V14.01,2013-04-18 02:58:00,
2013-04-17 20:00:00,63.9,29.3,30.13,NW,321,2.0,12.0,27,0.00,,---,0.00,VWS V14.01,2013-04-18 03:00:00,
2013-04-17 20:03:00,63.6,29.9,30.13,NW,322,2.0,5.0,28,0.00,,---,0.00,VWS V14.01,2013-04-18 03:03:00,
2013-04-17 20:08:00,63.1,30.4,30.13,NW,321,5.0,5.0,29,0.00,,---,0.00,VWS V14.01,2013-04-18 03:08:00,
2013-04-17 20:13:00,62.6,29.9,30.12,NW,321,0.0,6.0,29,0.00,,---,0.00,VWS V14.01,2013-04-18 03:13:00,
2013-04-17 20:15:00,62.4,29.8,30.12,NW,321,0.0,6.0,29,0.00,,---,0.00,VWS V14.01,2013-04-18 03:15:00,
2013-04-17 20:18:00,62.1,31.1,30.12,NW,321,0.0,1.0,31,0.00,,---,0.00,VWS V14.01,2013-04-18 03:18:00,
2013-04-17 20:23:00,61.5,30.6,30.13,NW,321,0.0,5.0,31,0.00,,---,0.00,VWS V14.01,2013-04-18 03:23:00,
2013-04-17 20:28:00,60.9,30.1,30.13,NW,321,4.0,6.0,31,0.00,,---,0.00,VWS V14.01,2013-04-18 03:28:00,
2013-04-17 20:30:00,60.7,30.7,30.13,NW,322,4.0,7.0,32,0.00,,---,0.00,VWS V14.01,2013-04-18 03:30:00,
2013-04-17 20:33:00,60.4,30.4,30.13,NW,321,8.0,8.0,32,0.00,,---,0.00,VWS V14.01,2013-04-18 03:33:00,
2013-04-17 20:38:00,59.9,30.0,30.14,NW,320,4.0,9.0,32,0.00,,---,0.00,VWS V14.01,2013-04-18 03:38:00,
2013-04-17 20:43:00,59.6,29.7,30.14,NNW,332,4.0,9.0,32,0.00,,---,0.00,VWS V14.01,2013-04-18 03:43:00,
2013-04-17 20:45:00,59.5,28.9,30.14,NW,326,5.0,9.0,31,0.00,,---,0.00,VWS V14.01,2013-04-18 03:45:00,
2013-04-17 20:48:00,59.5,29.6,30.14,NNW,337,10.0,12.0,32,0.00,,---,0.00,VWS V14.01,2013-04-18 03:48:00,
2013-04-17 20:53:00,59.3,30.2,30.14,NNW,339,4.0,12.0,33,0.00,,---,0.00,VWS V14.01,2013-04-18 03:53:00,
2013-04-17 20:58:00,59.1,30.0,30.14,NNW,338,2.0,12.0,33,0.00,,---,0.00,VWS V14.01,2013-04-18 03:58:00,
2013-04-17 21:00:00,59.1,30.0,30.14,NNW,338,1.0,12.0,33,0.00,,---,0.00,VWS V14.01,2013-04-18 04:00:00,
2013-04-17 21:01:00,59.0,30.0,30.14,NNW,338,2.0,2.0,33,0.00,,---,0.00,VWS V14.01,2013-04-18 04:01:00,
2013-04-17 21:06:00,58.7,30.4,30.14,NNW,338,4.0,5.0,34,0.00,,---,0.00,VWS V14.01,2013-04-18 04:06:00,
2013-04-17 21:11:00,58.3,29.3,30.15,NNW,333,4.0,8.0,33,0.00,,---,0.00,VWS V14.01,2013-04-18 04:11:00,
2013-04-17 21:15:00,58.0,29.1,30.15,North,349,8.0,10.0,33,0.00,,---,0.00,VWS V14.01,2013-04-18 04:15:00,
2013-04-17 21:16:00,57.9,29.0,30.15,NNW,348,2.0,9.0,33,0.00,,---,0.00,VWS V14.01,2013-04-18 04:16:00,
2013-04-17 21:21:00,57.8,30.4,30.15,NNW,346,4.0,9.0,35,0.00,,---,0.00,VWS V14.01,2013-04-18 04:21:00,
2013-04-17 21:26:00,57.6,30.2,30.15,NNW,339,7.0,9.0,35,0.00,,---,0.00,VWS V14.01,2013-04-18 04:26:00,
2013-04-17 21:30:00,57.4,29.3,30.15,NNW,338,5.0,10.0,34,0.00,,---,0.00,VWS V14.01,2013-04-18 04:30:00,
2013-04-17 21:31:00,57.4,29.3,30.15,NNW,338,5.0,6.0,34,0.00,,---,0.00,VWS V14.01,2013-04-18 04:31:00,
2013-04-17 21:36:00,57.3,29.2,30.15,NNW,336,2.0,9.0,34,0.00,,---,0.00,VWS V14.01,2013-04-18 04:36:00,
2013-04-17 21:40:00,57.2,29.8,30.15,NNW,337,7.0,9.0,35,0.00,,---,0.00,VWS V14.01,2013-04-18 04:40:00,
2013-04-17 21:45:00,57.0,28.9,30.16,NNW,335,7.0,9.0,34,0.00,,---,0.00,VWS V14.01,2013-04-18 04:45:00,
2013-04-17 21:50:00,57.0,29.6,30.16,NNW,333,8.0,12.0,35,0.00,,---,0.00,VWS V14.01,2013-04-18 04:50:00,
2013-04-17 21:55:00,57.0,28.9,30.16,NNW,342,4.0,12.0,34,0.00,,---,0.00,VWS V14.01,2013-04-18 04:55:00,
2013-04-17 22:00:00,57.2,29.8,30.16,NNW,335,12.0,12.0,35,0.00,,---,0.00,VWS V14.01,2013-04-18 05:00:00,
2013-04-17 22:05:00,57.4,29.3,30.16,NNW,342,8.0,12.0,34,0.00,,---,0.00,VWS V14.01,2013-04-18 05:05:00,
2013-04-17 22:10:00,57.6,30.2,30.16,North,351,8.0,12.0,35,0.00,,---,0.00,VWS V14.01,2013-04-18 05:10:00,
2013-04-17 22:15:00,57.6,30.2,30.16,NNW,336,6.0,7.0,35,0.00,,---,0.00,VWS V14.01,2013-04-18 05:15:00,
2013-04-17 22:20:00,57.7,30.3,30.16,NNW,336,6.0,10.0,35,0.00,,---,0.00,VWS V14.01,2013-04-18 05:20:00,
2013-04-17 22:25:00,57.7,30.3,30.16,NNW,338,6.0,12.0,35,0.00,,---,0.00,VWS V14.01,2013-04-18 05:25:00,
2013-04-17 22:30:00,57.8,29.6,30.16,NNW,329,8.0,9.0,34,0.00,,---,0.00,VWS V14.01,2013-04-18 05:30:00,
2013-04-17 22:35:00,57.9,30.4,30.15,NNW,344,6.0,10.0,35,0.00,,---,0.00,VWS V14.01,2013-04-18 05:35:00,
2013-04-17 22:40:00,58.0,29.8,30.15,NNW,338,10.0,13.0,34,0.00,,---,0.00,VWS V14.01,2013-04-18 05:40:00,
2013-04-17 22:45:00,58.0,30.5,30.16,NNW,342,7.0,7.0,35,0.00,,---,0.00,VWS V14.01,2013-04-18 05:45:00,
2013-04-17 22:50:00,58.1,30.6,30.16,NNW,340,5.0,12.0,35,0.00,,---,0.00,VWS V14.01,2013-04-18 05:50:00,
2013-04-17 23:00:00,58.1,30.6,30.16,NNW,338,6.0,12.0,35,0.00,,---,0.00,VWS V14.01,2013-04-18 06:00:00,
2013-04-17 23:15:00,57.5,29.4,30.15,NNW,338,5.0,10.0,34,0.00,,---,0.00,VWS V14.01,2013-04-18 06:15:00,
2013-04-17 23:30:00,57.4,30.0,30.16,NNW,338,7.0,11.0,35,0.00,,---,0.00,VWS V14.01,2013-04-18 06:30:00,
2013-04-17 23:45:00,57.2,30.5,30.16,North,0,5.0,10.0,36,0.00,,---,0.00,VWS V14.01,2013-04-18 06:45:00,